owner,sensor,date,latitude,longitude,vertical_datum,mass_concentration_of_oxygen_in_sea_water,qcFlag 
DISL,ioos:station:DISL:BSCA:1,2017-08-01T00:00:00Z,30.3288,-87.8293,1.986,3.62,1111122 
DISL,ioos:station:DISL:BSCA:1,2017-08-01T00:30:00Z,30.3288,-87.8293,1.985,3.37,1111122 
DISL,ioos:station:DISL:BSCA:1,2017-08-01T01:00:00Z,30.3288,-87.8293,1.994,5.72,1111122 
DISL,ioos:station:DISL:BSCA:1,2017-08-01T01:30:00Z,30.3288,-87.8293,1.995,6.08,1111122 
DISL,ioos:station:DISL:BSCA:1,2017-08-01T02:00:00Z,30.3288,-87.8293,2.02,5.15,1111122 
DISL,ioos:station:DISL:BSCA:1,2017-08-01T02:30:00Z,30.3288,-87.8293,2.028,6.04,1111122 
DISL,ioos:station:DISL:BSCA:1,2017-08-01T03:00:00Z,30.3288,-87.8293,2.048,7.69,1111122 
DISL,ioos:station:DISL:BSCA:1,2017-08-01T03:30:00Z,30.3288,-87.8293,2.057,6.33,1111122 
DISL,ioos:station:DISL:BSCA:1,2017-08-01T04:00:00Z,30.3288,-87.8293,2.063,6.15,1111122 
DISL,ioos:station:DISL:BSCA:1,2017-08-01T04:30:00Z,30.3288,-87.8293,2.088,6.9,1111122 
DISL,ioos:station:DISL:BSCA:1,2017-08-01T05:00:00Z,30.3288,-87.8293,2.089,5.86,1111122 
DISL,ioos:station:DISL:BSCA:1,2017-08-01T05:30:00Z,30.3288,-87.8293,2.091,6.65,1111122 
DISL,ioos:station:DISL:BSCA:1,2017-08-01T06:00:00Z,30.3288,-87.8293,2.11,1.74,1111122 
DISL,ioos:station:DISL:BSCA:1,2017-08-01T06:30:00Z,30.3288,-87.8293,2.114,1.79,1111122 
DISL,ioos:station:DISL:BSCA:1,2017-08-01T07:00:00Z,30.3288,-87.8293,2.13,1.22,1111122 
DISL,ioos:station:DISL:BSCA:1,2017-08-01T07:30:00Z,30.3288,-87.8293,2.137,0.57,1111122 
DISL,ioos:station:DISL:BSCA:1,2017-08-01T08:00:00Z,30.3288,-87.8293,2.15,0.43,1111122 
DISL,ioos:station:DISL:BSCA:1,2017-08-01T08:30:00Z,30.3288,-87.8293,2.175,0.43,1111122 
DISL,ioos:station:DISL:BSCA:1,2017-08-01T09:00:00Z,30.3288,-87.8293,2.183,0.48,1111122 
DISL,ioos:station:DISL:BSCA:1,2017-08-01T09:30:00Z,30.3288,-87.8293,2.2,1.27,1111122 
DISL,ioos:station:DISL:BSCA:1,2017-08-01T10:00:00Z,30.3288,-87.8293,2.217,1.45,1111122 
DISL,ioos:station:DISL:BSCA:1,2017-08-01T10:30:00Z,30.3288,-87.8293,2.233,1.2,1111122 
DISL,ioos:station:DISL:BSCA:1,2017-08-01T11:00:00Z,30.3288,-87.8293,2.242,0.61,1111122 
DISL,ioos:station:DISL:BSCA:1,2017-08-01T11:30:00Z,30.3288,-87.8293,2.243,0.48,1111122 
DISL,ioos:station:DISL:BSCA:1,2017-08-01T12:00:00Z,30.3288,-87.8293,2.249,0.41,1111122 
DISL,ioos:station:DISL:BSCA:1,2017-08-01T12:30:00Z,30.3288,-87.8293,2.246,0.76,1111122 
DISL,ioos:station:DISL:BSCA:1,2017-08-01T13:00:00Z,30.3288,-87.8293,2.248,0.63,1111122 
DISL,ioos:station:DISL:BSCA:1,2017-08-01T13:30:00Z,30.3288,-87.8293,2.257,0.55,1111122 
DISL,ioos:station:DISL:BSCA:1,2017-08-01T14:00:00Z,30.3288,-87.8293,2.247,0.52,1111122 
DISL,ioos:station:DISL:BSCA:1,2017-08-01T14:30:00Z,30.3288,-87.8293,2.24,0.54,1111122 
DISL,ioos:station:DISL:BSCA:1,2017-08-01T15:00:00Z,30.3288,-87.8293,2.22,0.62,1111122 
DISL,ioos:station:DISL:BSCA:1,2017-08-01T15:30:00Z,30.3288,-87.8293,2.2,0.72,1111122 
DISL,ioos:station:DISL:BSCA:1,2017-08-01T16:00:00Z,30.3288,-87.8293,2.175,0.83,1111122 
DISL,ioos:station:DISL:BSCA:1,2017-08-01T16:30:00Z,30.3288,-87.8293,2.152,0.77,1111122 
DISL,ioos:station:DISL:BSCA:1,2017-08-01T17:00:00Z,30.3288,-87.8293,2.125,0.81,1111122 
DISL,ioos:station:DISL:BSCA:1,2017-08-01T17:30:00Z,30.3288,-87.8293,2.104,0.87,1111122 
DISL,ioos:station:DISL:BSCA:1,2017-08-01T18:00:00Z,30.3288,-87.8293,2.087,0.93,1111122 
DISL,ioos:station:DISL:BSCA:1,2017-08-01T18:30:00Z,30.3288,-87.8293,2.071,0.93,1111122 
DISL,ioos:station:DISL:BSCA:1,2017-08-01T19:00:00Z,30.3288,-87.8293,2.049,1.05,1111122 
DISL,ioos:station:DISL:BSCA:1,2017-08-01T19:30:00Z,30.3288,-87.8293,2.032,1.11,1111122 
DISL,ioos:station:DISL:BSCA:1,2017-08-01T20:00:00Z,30.3288,-87.8293,2.005,1.12,1111122 
DISL,ioos:station:DISL:BSCA:1,2017-08-01T20:30:00Z,30.3288,-87.8293,1.977,2.43,1111122 
DISL,ioos:station:DISL:BSCA:1,2017-08-01T21:00:00Z,30.3288,-87.8293,1.953,3.13,1111122 
DISL,ioos:station:DISL:BSCA:1,2017-08-01T21:30:00Z,30.3288,-87.8293,1.948,3.32,1111122 
DISL,ioos:station:DISL:BSCA:1,2017-08-01T22:00:00Z,30.3288,-87.8293,1.936,4.18,1111122 
DISL,ioos:station:DISL:BSCA:1,2017-08-01T22:30:00Z,30.3288,-87.8293,1.938,5.1,1111122 
DISL,ioos:station:DISL:BSCA:1,2017-08-01T23:00:00Z,30.3288,-87.8293,1.937,5.27,1111122 
DISL,ioos:station:DISL:BSCA:1,2017-08-01T23:30:00Z,30.3288,-87.8293,1.934,5.32,1111122 
DISL,ioos:station:DISL:BSCA:1,2017-08-02T00:00:00Z,30.3288,-87.8293,1.937,5.18,1111122 
DISL,ioos:station:DISL:BSCA:1,2017-08-02T00:30:00Z,30.3288,-87.8293,1.933,4.04,1111122 
DISL,ioos:station:DISL:BSCA:1,2017-08-02T01:00:00Z,30.3288,-87.8293,1.951,3.12,1111122 
DISL,ioos:station:DISL:BSCA:1,2017-08-02T01:30:00Z,30.3288,-87.8293,1.957,4.15,1111122 
DISL,ioos:station:DISL:BSCA:1,2017-08-02T02:00:00Z,30.3288,-87.8293,1.966,5.1,1111122 
DISL,ioos:station:DISL:BSCA:1,2017-08-02T02:30:00Z,30.3288,-87.8293,1.978,5.82,1111122 
DISL,ioos:station:DISL:BSCA:1,2017-08-02T03:00:00Z,30.3288,-87.8293,1.996,5.97,1111122 
DISL,ioos:station:DISL:BSCA:1,2017-08-02T03:30:00Z,30.3288,-87.8293,2.019,5.35,1111122 
DISL,ioos:station:DISL:BSCA:1,2017-08-02T04:00:00Z,30.3288,-87.8293,2.041,3.87,1111122 
DISL,ioos:station:DISL:BSCA:1,2017-08-02T04:30:00Z,30.3288,-87.8293,2.058,2.98,1111122 
DISL,ioos:station:DISL:BSCA:1,2017-08-02T05:00:00Z,30.3288,-87.8293,2.075,1.58,1111122 
DISL,ioos:station:DISL:BSCA:1,2017-08-02T05:30:00Z,30.3288,-87.8293,2.092,1.58,1111122 
DISL,ioos:station:DISL:BSCA:1,2017-08-02T06:00:00Z,30.3288,-87.8293,2.111,0.43,1111122 
DISL,ioos:station:DISL:BSCA:1,2017-08-02T06:30:00Z,30.3288,-87.8293,2.13,0.39,1111122 
DISL,ioos:station:DISL:BSCA:1,2017-08-02T07:00:00Z,30.3288,-87.8293,2.165,0.24,1111122 
DISL,ioos:station:DISL:BSCA:1,2017-08-02T07:30:00Z,30.3288,-87.8293,2.165,0.24,1111122 
DISL,ioos:station:DISL:BSCA:1,2017-08-02T08:00:00Z,30.3288,-87.8293,2.216,0.24,1111122 
DISL,ioos:station:DISL:BSCA:1,2017-08-02T08:30:00Z,30.3288,-87.8293,2.228,0.22,1111122 
DISL,ioos:station:DISL:BSCA:1,2017-08-02T09:00:00Z,30.3288,-87.8293,2.245,0.22,1111122 
DISL,ioos:station:DISL:BSCA:1,2017-08-02T09:30:00Z,30.3288,-87.8293,2.26,0.22,1111122 
DISL,ioos:station:DISL:BSCA:1,2017-08-02T10:00:00Z,30.3288,-87.8293,2.271,0.21,1111122 
DISL,ioos:station:DISL:BSCA:1,2017-08-02T10:30:00Z,30.3288,-87.8293,2.291,0.21,1111122 
DISL,ioos:station:DISL:BSCA:1,2017-08-02T11:00:00Z,30.3288,-87.8293,2.295,0.21,1111122 
DISL,ioos:station:DISL:BSCA:1,2017-08-02T11:30:00Z,30.3288,-87.8293,2.302,0.21,1111122 
DISL,ioos:station:DISL:BSCA:1,2017-08-02T12:00:00Z,30.3288,-87.8293,2.307,0.21,1111122 
DISL,ioos:station:DISL:BSCA:1,2017-08-02T12:30:00Z,30.3288,-87.8293,2.3,0.21,1111122 
DISL,ioos:station:DISL:BSCA:1,2017-08-02T13:00:00Z,30.3288,-87.8293,2.281,0.21,1111122 
DISL,ioos:station:DISL:BSCA:1,2017-08-02T13:30:00Z,30.3288,-87.8293,2.275,0.21,1111122 
DISL,ioos:station:DISL:BSCA:1,2017-08-02T14:00:00Z,30.3288,-87.8293,2.249,0.21,1111122 
DISL,ioos:station:DISL:BSCA:1,2017-08-02T14:30:00Z,30.3288,-87.8293,2.235,0.21,1111122 
DISL,ioos:station:DISL:BSCA:1,2017-08-02T15:00:00Z,30.3288,-87.8293,2.211,0.22,1111122 
DISL,ioos:station:DISL:BSCA:1,2017-08-02T15:30:00Z,30.3288,-87.8293,2.21,0.21,1111122 
DISL,ioos:station:DISL:BSCA:1,2017-08-02T16:00:00Z,30.3288,-87.8293,2.198,0.22,1111122 
DISL,ioos:station:DISL:BSCA:1,2017-08-02T16:30:00Z,30.3288,-87.8293,2.183,0.22,1111122 
DISL,ioos:station:DISL:BSCA:1,2017-08-02T17:00:00Z,30.3288,-87.8293,2.156,0.27,1111122 
DISL,ioos:station:DISL:BSCA:1,2017-08-02T17:30:00Z,30.3288,-87.8293,2.137,0.45,1111122 
DISL,ioos:station:DISL:BSCA:1,2017-08-02T18:00:00Z,30.3288,-87.8293,2.116,0.48,1111122 
DISL,ioos:station:DISL:BSCA:1,2017-08-02T18:30:00Z,30.3288,-87.8293,2.087,0.54,1111122 
DISL,ioos:station:DISL:BSCA:1,2017-08-02T19:00:00Z,30.3288,-87.8293,2.059,0.57,1111122 
DISL,ioos:station:DISL:BSCA:1,2017-08-02T19:30:00Z,30.3288,-87.8293,2.029,1.0,1111122 
DISL,ioos:station:DISL:BSCA:1,2017-08-02T20:00:00Z,30.3288,-87.8293,2.004,2.39,1111122 
DISL,ioos:station:DISL:BSCA:1,2017-08-02T20:30:00Z,30.3288,-87.8293,1.983,2.98,1111122 
DISL,ioos:station:DISL:BSCA:1,2017-08-02T21:00:00Z,30.3288,-87.8293,1.951,0.78,1111122 
DISL,ioos:station:DISL:BSCA:1,2017-08-02T21:30:00Z,30.3288,-87.8293,1.935,0.72,1111122 
DISL,ioos:station:DISL:BSCA:1,2017-08-02T22:00:00Z,30.3288,-87.8293,1.911,0.65,1111122 
DISL,ioos:station:DISL:BSCA:1,2017-08-02T22:30:00Z,30.3288,-87.8293,1.905,1.38,1111122 
DISL,ioos:station:DISL:BSCA:1,2017-08-02T23:00:00Z,30.3288,-87.8293,1.895,0.51,1111122 
DISL,ioos:station:DISL:BSCA:1,2017-08-02T23:30:00Z,30.3288,-87.8293,1.902,1.24,1111122 
DISL,ioos:station:DISL:BSCA:1,2017-08-03T00:00:00Z,30.3288,-87.8293,1.896,5.16,1111122 
DISL,ioos:station:DISL:BSCA:1,2017-08-03T00:30:00Z,30.3288,-87.8293,1.896,3.45,1111122 
DISL,ioos:station:DISL:BSCA:1,2017-08-03T01:00:00Z,30.3288,-87.8293,1.923,4.77,1111122 
DISL,ioos:station:DISL:BSCA:1,2017-08-03T01:30:00Z,30.3288,-87.8293,1.949,4.07,1111122 
DISL,ioos:station:DISL:BSCA:1,2017-08-03T02:00:00Z,30.3288,-87.8293,1.989,5.83,1111122 
DISL,ioos:station:DISL:BSCA:1,2017-08-03T02:30:00Z,30.3288,-87.8293,2.009,5.58,1111122 
DISL,ioos:station:DISL:BSCA:1,2017-08-03T03:00:00Z,30.3288,-87.8293,2.041,5.48,1111122 
DISL,ioos:station:DISL:BSCA:1,2017-08-03T03:30:00Z,30.3288,-87.8293,2.057,3.41,1111122 
DISL,ioos:station:DISL:BSCA:1,2017-08-03T04:00:00Z,30.3288,-87.8293,2.059,2.75,1111122 
DISL,ioos:station:DISL:BSCA:1,2017-08-03T04:30:00Z,30.3288,-87.8293,2.092,2.23,1111122 
DISL,ioos:station:DISL:BSCA:1,2017-08-03T05:00:00Z,30.3288,-87.8293,2.098,1.99,1111122 
DISL,ioos:station:DISL:BSCA:1,2017-08-03T05:30:00Z,30.3288,-87.8293,2.117,1.94,1111122 
DISL,ioos:station:DISL:BSCA:1,2017-08-03T06:00:00Z,30.3288,-87.8293,2.139,1.69,1111122 
DISL,ioos:station:DISL:BSCA:1,2017-08-03T06:30:00Z,30.3288,-87.8293,2.169,0.94,1111122 
DISL,ioos:station:DISL:BSCA:1,2017-08-03T07:00:00Z,30.3288,-87.8293,2.181,0.76,1111122 
DISL,ioos:station:DISL:BSCA:1,2017-08-03T07:30:00Z,30.3288,-87.8293,2.194,0.75,1111122 
DISL,ioos:station:DISL:BSCA:1,2017-08-03T08:00:00Z,30.3288,-87.8293,2.209,0.79,1111122 
DISL,ioos:station:DISL:BSCA:1,2017-08-03T08:30:00Z,30.3288,-87.8293,2.23,0.82,1111122 
DISL,ioos:station:DISL:BSCA:1,2017-08-03T09:00:00Z,30.3288,-87.8293,2.242,0.98,1111122 
DISL,ioos:station:DISL:BSCA:1,2017-08-03T09:30:00Z,30.3288,-87.8293,2.252,0.74,1111122 
DISL,ioos:station:DISL:BSCA:1,2017-08-03T10:00:00Z,30.3288,-87.8293,2.27,0.61,1111122 
DISL,ioos:station:DISL:BSCA:1,2017-08-03T10:30:00Z,30.3288,-87.8293,2.271,0.24,1111122 
DISL,ioos:station:DISL:BSCA:1,2017-08-03T11:00:00Z,30.3288,-87.8293,2.289,0.21,1111122 
DISL,ioos:station:DISL:BSCA:1,2017-08-03T11:30:00Z,30.3288,-87.8293,2.264,0.22,1111122 
DISL,ioos:station:DISL:BSCA:1,2017-08-03T12:00:00Z,30.3288,-87.8293,2.275,0.22,1111122 
DISL,ioos:station:DISL:BSCA:1,2017-08-03T12:30:00Z,30.3288,-87.8293,2.256,0.27,1111122 
DISL,ioos:station:DISL:BSCA:1,2017-08-03T13:00:00Z,30.3288,-87.8293,2.272,0.22,1111122 
DISL,ioos:station:DISL:BSCA:1,2017-08-03T13:30:00Z,30.3288,-87.8293,2.27,0.28,1111122 
DISL,ioos:station:DISL:BSCA:1,2017-08-03T14:00:00Z,30.3288,-87.8293,2.274,0.32,1111122 
DISL,ioos:station:DISL:BSCA:1,2017-08-03T14:30:00Z,30.3288,-87.8293,2.26,0.55,1111122 
DISL,ioos:station:DISL:BSCA:1,2017-08-03T15:00:00Z,30.3288,-87.8293,2.237,0.36,1111122 
DISL,ioos:station:DISL:BSCA:1,2017-08-03T15:30:00Z,30.3288,-87.8293,2.231,0.62,1111122 
DISL,ioos:station:DISL:BSCA:1,2017-08-03T16:00:00Z,30.3288,-87.8293,2.223,0.65,1111122 
DISL,ioos:station:DISL:BSCA:1,2017-08-03T16:30:00Z,30.3288,-87.8293,2.222,0.62,1111122 
DISL,ioos:station:DISL:BSCA:1,2017-08-03T17:00:00Z,30.3288,-87.8293,2.215,0.69,1111122 
DISL,ioos:station:DISL:BSCA:1,2017-08-03T17:30:00Z,30.3288,-87.8293,2.197,0.33,1111122 
DISL,ioos:station:DISL:BSCA:1,2017-08-03T18:00:00Z,30.3288,-87.8293,2.17,0.3,1111122 
DISL,ioos:station:DISL:BSCA:1,2017-08-03T18:30:00Z,30.3288,-87.8293,2.131,0.28,1111122 
DISL,ioos:station:DISL:BSCA:1,2017-08-03T19:00:00Z,30.3288,-87.8293,2.106,0.26,1111122 
DISL,ioos:station:DISL:BSCA:1,2017-08-03T19:30:00Z,30.3288,-87.8293,2.071,0.24,1111122 
DISL,ioos:station:DISL:BSCA:1,2017-08-03T20:00:00Z,30.3288,-87.8293,2.054,0.24,1111122 
DISL,ioos:station:DISL:BSCA:1,2017-08-03T20:30:00Z,30.3288,-87.8293,2.029,0.28,1111122 
DISL,ioos:station:DISL:BSCA:1,2017-08-03T21:00:00Z,30.3288,-87.8293,2.006,0.26,1111122 
DISL,ioos:station:DISL:BSCA:1,2017-08-03T21:30:00Z,30.3288,-87.8293,1.979,0.23,1111122 
DISL,ioos:station:DISL:BSCA:1,2017-08-03T22:00:00Z,30.3288,-87.8293,1.957,0.25,1111122 
DISL,ioos:station:DISL:BSCA:1,2017-08-03T22:30:00Z,30.3288,-87.8293,1.934,0.29,1111122 
DISL,ioos:station:DISL:BSCA:1,2017-08-03T23:00:00Z,30.3288,-87.8293,1.926,0.29,1111122 
DISL,ioos:station:DISL:BSCA:1,2017-08-03T23:30:00Z,30.3288,-87.8293,1.904,0.25,1111122 
DISL,ioos:station:DISL:BSCA:1,2017-08-04T00:00:00Z,30.3288,-87.8293,1.896,0.3,1111122 
DISL,ioos:station:DISL:BSCA:1,2017-08-04T00:30:00Z,30.3288,-87.8293,1.885,0.27,1111122 
DISL,ioos:station:DISL:BSCA:1,2017-08-04T01:00:00Z,30.3288,-87.8293,1.872,0.29,1111122 
DISL,ioos:station:DISL:BSCA:1,2017-08-04T01:30:00Z,30.3288,-87.8293,1.886,0.28,1111122 
DISL,ioos:station:DISL:BSCA:1,2017-08-04T02:00:00Z,30.3288,-87.8293,1.872,0.26,1111122 
DISL,ioos:station:DISL:BSCA:1,2017-08-04T02:30:00Z,30.3288,-87.8293,1.887,0.3,1111122 
DISL,ioos:station:DISL:BSCA:1,2017-08-04T03:00:00Z,30.3288,-87.8293,1.899,0.33,1111122 
DISL,ioos:station:DISL:BSCA:1,2017-08-04T03:30:00Z,30.3288,-87.8293,1.954,0.31,1111122 
DISL,ioos:station:DISL:BSCA:1,2017-08-04T04:00:00Z,30.3288,-87.8293,1.982,0.28,1111122 
DISL,ioos:station:DISL:BSCA:1,2017-08-04T04:30:00Z,30.3288,-87.8293,2.019,0.32,1111122 
DISL,ioos:station:DISL:BSCA:1,2017-08-04T05:00:00Z,30.3288,-87.8293,2.049,0.87,1111122 
DISL,ioos:station:DISL:BSCA:1,2017-08-04T05:30:00Z,30.3288,-87.8293,2.084,1.98,1111122 
DISL,ioos:station:DISL:BSCA:1,2017-08-04T06:00:00Z,30.3288,-87.8293,2.093,1.93,1111122 
DISL,ioos:station:DISL:BSCA:1,2017-08-04T06:30:00Z,30.3288,-87.8293,2.127,2.98,1111122 
DISL,ioos:station:DISL:BSCA:1,2017-08-04T07:00:00Z,30.3288,-87.8293,2.151,5.81,1111122 
DISL,ioos:station:DISL:BSCA:1,2017-08-04T07:30:00Z,30.3288,-87.8293,2.181,5.59,1111122 
DISL,ioos:station:DISL:BSCA:1,2017-08-04T08:00:00Z,30.3288,-87.8293,2.226,5.66,1111122 
DISL,ioos:station:DISL:BSCA:1,2017-08-04T08:30:00Z,30.3288,-87.8293,2.262,5.54,1111122 
DISL,ioos:station:DISL:BSCA:1,2017-08-04T09:00:00Z,30.3288,-87.8293,2.323,5.53,1111122 
DISL,ioos:station:DISL:BSCA:1,2017-08-04T09:30:00Z,30.3288,-87.8293,2.355,5.78,1111122 
DISL,ioos:station:DISL:BSCA:1,2017-08-04T10:00:00Z,30.3288,-87.8293,2.391,5.06,1111122 
DISL,ioos:station:DISL:BSCA:1,2017-08-04T10:30:00Z,30.3288,-87.8293,2.372,6.25,1111122 
DISL,ioos:station:DISL:BSCA:1,2017-08-04T11:00:00Z,30.3288,-87.8293,2.388,5.82,1111122 
DISL,ioos:station:DISL:BSCA:1,2017-08-04T11:30:00Z,30.3288,-87.8293,2.379,4.39,1111122 
DISL,ioos:station:DISL:BSCA:1,2017-08-04T12:00:00Z,30.3288,-87.8293,2.391,5.37,1111122 
DISL,ioos:station:DISL:BSCA:1,2017-08-04T12:30:00Z,30.3288,-87.8293,2.397,5.28,1111122 
DISL,ioos:station:DISL:BSCA:1,2017-08-04T13:00:00Z,30.3288,-87.8293,2.414,5.2,1111122 
DISL,ioos:station:DISL:BSCA:1,2017-08-04T13:30:00Z,30.3288,-87.8293,2.448,5.7,1111122 
DISL,ioos:station:DISL:BSCA:1,2017-08-04T14:00:00Z,30.3288,-87.8293,2.449,4.43,1111122 
DISL,ioos:station:DISL:BSCA:1,2017-08-04T14:30:00Z,30.3288,-87.8293,2.409,4.83,1111122 
DISL,ioos:station:DISL:BSCA:1,2017-08-04T15:00:00Z,30.3288,-87.8293,2.351,5.74,1111122 
DISL,ioos:station:DISL:BSCA:1,2017-08-04T15:30:00Z,30.3288,-87.8293,2.295,5.76,1111122 
DISL,ioos:station:DISL:BSCA:1,2017-08-04T16:00:00Z,30.3288,-87.8293,2.277,5.58,1111122 
DISL,ioos:station:DISL:BSCA:1,2017-08-04T16:30:00Z,30.3288,-87.8293,2.252,5.08,1111122 
DISL,ioos:station:DISL:BSCA:1,2017-08-04T17:00:00Z,30.3288,-87.8293,2.292,1.96,1111122 
DISL,ioos:station:DISL:BSCA:1,2017-08-04T17:30:00Z,30.3288,-87.8293,2.239,0.96,1111122 
DISL,ioos:station:DISL:BSCA:1,2017-08-04T18:00:00Z,30.3288,-87.8293,2.212,1.75,1111122 
DISL,ioos:station:DISL:BSCA:1,2017-08-04T18:30:00Z,30.3288,-87.8293,2.16,2.41,1111122 
DISL,ioos:station:DISL:BSCA:1,2017-08-04T19:00:00Z,30.3288,-87.8293,2.113,1.38,1111122 
DISL,ioos:station:DISL:BSCA:1,2017-08-04T19:30:00Z,30.3288,-87.8293,2.097,6.05,1111122 
DISL,ioos:station:DISL:BSCA:1,2017-08-04T20:00:00Z,30.3288,-87.8293,2.038,5.27,1111122 
DISL,ioos:station:DISL:BSCA:1,2017-08-04T20:30:00Z,30.3288,-87.8293,2.051,4.56,1111122 
DISL,ioos:station:DISL:BSCA:1,2017-08-04T21:00:00Z,30.3288,-87.8293,2.063,5.51,1111122 
DISL,ioos:station:DISL:BSCA:1,2017-08-04T21:30:00Z,30.3288,-87.8293,2.092,6.14,1111122 
DISL,ioos:station:DISL:BSCA:1,2017-08-04T22:00:00Z,30.3288,-87.8293,2.005,6.2,1111122 
DISL,ioos:station:DISL:BSCA:1,2017-08-04T22:30:00Z,30.3288,-87.8293,2.067,6.42,1111122 
DISL,ioos:station:DISL:BSCA:1,2017-08-04T23:00:00Z,30.3288,-87.8293,2.051,6.69,1111122 
DISL,ioos:station:DISL:BSCA:1,2017-08-04T23:30:00Z,30.3288,-87.8293,2.066,6.75,1111122 
DISL,ioos:station:DISL:BSCA:1,2017-08-05T00:00:00Z,30.3288,-87.8293,2.185,6.85,1111122 
DISL,ioos:station:DISL:BSCA:1,2017-08-05T00:30:00Z,30.3288,-87.8293,2.053,6.78,1111122 
DISL,ioos:station:DISL:BSCA:1,2017-08-05T01:00:00Z,30.3288,-87.8293,2.08,6.78,1111122 
DISL,ioos:station:DISL:BSCA:1,2017-08-05T01:30:00Z,30.3288,-87.8293,2.162,6.7,1111122 
DISL,ioos:station:DISL:BSCA:1,2017-08-05T02:00:00Z,30.3288,-87.8293,2.042,6.63,1111122 
DISL,ioos:station:DISL:BSCA:1,2017-08-05T02:30:00Z,30.3288,-87.8293,2.042,6.63,1111122 
DISL,ioos:station:DISL:BSCA:1,2017-08-05T03:00:00Z,30.3288,-87.8293,1.956,6.51,1111122 
DISL,ioos:station:DISL:BSCA:1,2017-08-05T03:30:00Z,30.3288,-87.8293,1.97,6.36,1111122 
DISL,ioos:station:DISL:BSCA:1,2017-08-05T04:00:00Z,30.3288,-87.8293,1.98,6.27,1111122 
DISL,ioos:station:DISL:BSCA:1,2017-08-05T04:30:00Z,30.3288,-87.8293,1.993,6.18,1111122 
DISL,ioos:station:DISL:BSCA:1,2017-08-05T05:00:00Z,30.3288,-87.8293,2.039,6.21,1111122 
DISL,ioos:station:DISL:BSCA:1,2017-08-05T05:30:00Z,30.3288,-87.8293,2.06,6.11,1111122 
DISL,ioos:station:DISL:BSCA:1,2017-08-05T06:00:00Z,30.3288,-87.8293,2.088,6.36,1111122 
DISL,ioos:station:DISL:BSCA:1,2017-08-05T06:30:00Z,30.3288,-87.8293,2.112,6.34,1111122 
DISL,ioos:station:DISL:BSCA:1,2017-08-05T07:00:00Z,30.3288,-87.8293,2.115,6.38,1111122 
DISL,ioos:station:DISL:BSCA:1,2017-08-05T07:30:00Z,30.3288,-87.8293,2.14,6.35,1111122 
DISL,ioos:station:DISL:BSCA:1,2017-08-05T08:00:00Z,30.3288,-87.8293,2.152,6.26,1111122 
DISL,ioos:station:DISL:BSCA:1,2017-08-05T08:30:00Z,30.3288,-87.8293,2.176,6.19,1111122 
DISL,ioos:station:DISL:BSCA:1,2017-08-05T09:00:00Z,30.3288,-87.8293,2.2,6.26,1111122 
DISL,ioos:station:DISL:BSCA:1,2017-08-05T09:30:00Z,30.3288,-87.8293,2.206,6.36,1111122 
DISL,ioos:station:DISL:BSCA:1,2017-08-05T10:00:00Z,30.3288,-87.8293,2.214,6.4,1111122 
DISL,ioos:station:DISL:BSCA:1,2017-08-05T10:30:00Z,30.3288,-87.8293,2.227,5.98,1111122 
DISL,ioos:station:DISL:BSCA:1,2017-08-05T11:00:00Z,30.3288,-87.8293,2.248,6.33,1111122 
DISL,ioos:station:DISL:BSCA:1,2017-08-05T11:30:00Z,30.3288,-87.8293,2.271,6.03,1111122 
DISL,ioos:station:DISL:BSCA:1,2017-08-05T12:00:00Z,30.3288,-87.8293,2.293,6.07,1111122 
DISL,ioos:station:DISL:BSCA:1,2017-08-05T12:30:00Z,30.3288,-87.8293,2.315,5.94,1111122 
DISL,ioos:station:DISL:BSCA:1,2017-08-05T13:00:00Z,30.3288,-87.8293,2.35,5.59,1111122 
DISL,ioos:station:DISL:BSCA:1,2017-08-05T13:30:00Z,30.3288,-87.8293,2.348,5.53,1111122 
DISL,ioos:station:DISL:BSCA:1,2017-08-05T14:00:00Z,30.3288,-87.8293,2.369,5.4,1111122 
DISL,ioos:station:DISL:BSCA:1,2017-08-05T14:30:00Z,30.3288,-87.8293,2.369,5.35,1111122 
DISL,ioos:station:DISL:BSCA:1,2017-08-05T15:00:00Z,30.3288,-87.8293,2.381,5.48,1111122 
DISL,ioos:station:DISL:BSCA:1,2017-08-05T15:30:00Z,30.3288,-87.8293,2.367,4.9,1111122 
DISL,ioos:station:DISL:BSCA:1,2017-08-05T16:00:00Z,30.3288,-87.8293,2.35,5.14,1111122 
DISL,ioos:station:DISL:BSCA:1,2017-08-05T16:30:00Z,30.3288,-87.8293,2.338,5.15,1111122 
DISL,ioos:station:DISL:BSCA:1,2017-08-05T17:00:00Z,30.3288,-87.8293,2.323,5.87,1111122 
DISL,ioos:station:DISL:BSCA:1,2017-08-05T17:30:00Z,30.3288,-87.8293,2.288,5.71,1111122 
DISL,ioos:station:DISL:BSCA:1,2017-08-05T18:00:00Z,30.3288,-87.8293,2.276,5.47,1111122 
DISL,ioos:station:DISL:BSCA:1,2017-08-05T18:30:00Z,30.3288,-87.8293,2.223,5.36,1111122 
DISL,ioos:station:DISL:BSCA:1,2017-08-05T19:00:00Z,30.3288,-87.8293,2.191,5.33,1111122 
DISL,ioos:station:DISL:BSCA:1,2017-08-05T19:30:00Z,30.3288,-87.8293,2.145,5.53,1111122 
DISL,ioos:station:DISL:BSCA:1,2017-08-05T20:00:00Z,30.3288,-87.8293,2.107,6.47,1111122 
DISL,ioos:station:DISL:BSCA:1,2017-08-05T20:30:00Z,30.3288,-87.8293,2.065,6.49,1111122 
DISL,ioos:station:DISL:BSCA:1,2017-08-05T21:00:00Z,30.3288,-87.8293,2.034,6.25,1111122 
DISL,ioos:station:DISL:BSCA:1,2017-08-05T21:30:00Z,30.3288,-87.8293,2.004,7.22,1111122 
DISL,ioos:station:DISL:BSCA:1,2017-08-05T22:00:00Z,30.3288,-87.8293,1.977,7.51,1111122 
DISL,ioos:station:DISL:BSCA:1,2017-08-05T22:30:00Z,30.3288,-87.8293,1.954,7.82,1111122 
DISL,ioos:station:DISL:BSCA:1,2017-08-05T23:00:00Z,30.3288,-87.8293,1.928,7.83,1111122 
DISL,ioos:station:DISL:BSCA:1,2017-08-05T23:30:00Z,30.3288,-87.8293,1.911,7.75,1111122 
DISL,ioos:station:DISL:BSCA:1,2017-08-06T00:00:00Z,30.3288,-87.8293,1.896,7.75,1111122 
DISL,ioos:station:DISL:BSCA:1,2017-08-06T00:30:00Z,30.3288,-87.8293,1.891,8.05,1111122 
DISL,ioos:station:DISL:BSCA:1,2017-08-06T01:00:00Z,30.3288,-87.8293,1.874,7.59,1111122 
DISL,ioos:station:DISL:BSCA:1,2017-08-06T01:30:00Z,30.3288,-87.8293,1.878,7.39,1111122 
DISL,ioos:station:DISL:BSCA:1,2017-08-06T02:00:00Z,30.3288,-87.8293,1.861,7.25,1111122 
DISL,ioos:station:DISL:BSCA:1,2017-08-06T02:30:00Z,30.3288,-87.8293,1.868,6.86,1111122 
DISL,ioos:station:DISL:BSCA:1,2017-08-06T03:00:00Z,30.3288,-87.8293,1.857,6.77,1111122 
DISL,ioos:station:DISL:BSCA:1,2017-08-06T03:30:00Z,30.3288,-87.8293,1.872,5.67,1111122 
DISL,ioos:station:DISL:BSCA:1,2017-08-06T04:00:00Z,30.3288,-87.8293,1.89,5.72,1111122 
DISL,ioos:station:DISL:BSCA:1,2017-08-06T04:30:00Z,30.3288,-87.8293,1.905,5.35,1111122 
DISL,ioos:station:DISL:BSCA:1,2017-08-06T05:00:00Z,30.3288,-87.8293,1.926,7.02,1111122 
DISL,ioos:station:DISL:BSCA:1,2017-08-06T05:30:00Z,30.3288,-87.8293,1.948,5.72,1111122 
DISL,ioos:station:DISL:BSCA:1,2017-08-06T06:00:00Z,30.3288,-87.8293,1.982,6.18,1111122 
DISL,ioos:station:DISL:BSCA:1,2017-08-06T06:30:00Z,30.3288,-87.8293,2.01,6.3,1111122 
DISL,ioos:station:DISL:BSCA:1,2017-08-06T07:00:00Z,30.3288,-87.8293,2.044,6.8,1111122 
DISL,ioos:station:DISL:BSCA:1,2017-08-06T07:30:00Z,30.3288,-87.8293,2.056,6.81,1111122 
DISL,ioos:station:DISL:BSCA:1,2017-08-06T08:00:00Z,30.3288,-87.8293,2.103,6.84,1111122 
DISL,ioos:station:DISL:BSCA:1,2017-08-06T08:30:00Z,30.3288,-87.8293,2.126,6.75,1111122 
DISL,ioos:station:DISL:BSCA:1,2017-08-06T09:00:00Z,30.3288,-87.8293,2.149,6.71,1111122 
DISL,ioos:station:DISL:BSCA:1,2017-08-06T09:30:00Z,30.3288,-87.8293,2.182,6.78,1111122 
DISL,ioos:station:DISL:BSCA:1,2017-08-06T10:00:00Z,30.3288,-87.8293,2.204,6.28,1111122 
DISL,ioos:station:DISL:BSCA:1,2017-08-06T10:30:00Z,30.3288,-87.8293,2.235,5.83,1111122 
DISL,ioos:station:DISL:BSCA:1,2017-08-06T11:00:00Z,30.3288,-87.8293,2.26,5.44,1111122 
DISL,ioos:station:DISL:BSCA:1,2017-08-06T11:30:00Z,30.3288,-87.8293,2.29,5.14,1111122 
DISL,ioos:station:DISL:BSCA:1,2017-08-06T12:00:00Z,30.3288,-87.8293,2.319,5.13,1111122 
DISL,ioos:station:DISL:BSCA:1,2017-08-06T12:30:00Z,30.3288,-87.8293,2.348,6.58,1111122 
DISL,ioos:station:DISL:BSCA:1,2017-08-06T13:00:00Z,30.3288,-87.8293,2.376,6.07,1111122 
DISL,ioos:station:DISL:BSCA:1,2017-08-06T13:30:00Z,30.3288,-87.8293,2.393,6.7,1111122 
DISL,ioos:station:DISL:BSCA:1,2017-08-06T14:00:00Z,30.3288,-87.8293,2.41,5.52,1111122 
DISL,ioos:station:DISL:BSCA:1,2017-08-06T14:30:00Z,30.3288,-87.8293,2.401,4.9,1111122 
DISL,ioos:station:DISL:BSCA:1,2017-08-06T15:00:00Z,30.3288,-87.8293,2.399,5.83,1111122 
DISL,ioos:station:DISL:BSCA:1,2017-08-06T15:30:00Z,30.3288,-87.8293,2.409,5.8,1111122 